FENGYUN 1C DEB

Satellite information

Favourite Embed

Satellite Type and Status

DEBRISIN ORBIT

Key statistics

Satellite FENGYUN 1C DEB at a glance.

Uptime

9499

Days in orbit

Revolutions

≈ 14.4

Per day

Orbit

SSO

Sun Synchronous Orbit

Inclination

98.3

Latest

Satellite identification and parameters

Extended collection of information and parameters for FENGYUN 1C DEB.

Object identification

Identified? True

Debris? True

Object name: FENGYUN 1C DEB

International designator: 1999-025AQK

Object number (NORAD): 30677

Object ID (CCSDS): 30677

Country: PEOPLES REPUBLIC OF CHINA (PRC)

Current information (Y/N): Y

RCS size: SMALL

Orbital parameters

Period: 100.25 minutes

Inclination: 98.2683 deg

SMA: 7148.548 km

Apoapsis: 820.323 km

Periapsis: 720.503 km

RAAN: 185.1937 deg

Eccentricy: 0.0069818

Argument of periapsis: 129.8873 deg

Mean anomaly: 21.5328 deg

Mean motion: 14.36401968 rev/day

Mean motion (dot): 0.0000409 rev/day2

B* drag term: 0.0013712 1/REarth

Two-line elements (TLE)

Creation date: May 11, 2025, 10:21 p.m.

Reference frame: TEME

Reference center: EARTH

Epoch: May 11, 2025, 3:32 p.m. UTC

TLE line 0: 0 FENGYUN 1C DEB

TLE line 1: 1 30677U 99025AQK 25131.64736238 .00004090 00000-0 13712-2 0 9998

TLE line 2: 2 30677 98.2683 185.1937 0069818 129.8873 21.5328 14.36401968948908

Live tracking on map

Real-time ground track for satellite FENGYUN 1C DEB.

In-orbit conjunctions

A list of the most updated potential collisions computed for object FENGYUN 1C DEB.

Target Orbit TCA Probability of collision Miss distance Type
MAST SSO 2025-03-02 20:26:33 0.0001172498 491.0 (m) PAYLOAD

Associated space launch

Chinese polar orbiting meteorological satellite

FENGYUN 1C DEB was lifted into orbit during the mission ‘Long March 4B | Feng Yun 1C’, on board a Long March 4B space rocket.

The launch took place on May 10, 1999, 1:33 a.m. from Launch Complex 7.

For more information about the launch, click the button.

Launch to space Long March 4B | Feng Yun 1C
Long March 4B | Feng Yun 1C

Agency: N/A

Status: Launch Successful

Launch date: May 10, 1999, 1:33 a.m. UTC

Rocket: Long March 4B

Launch pad: Launch Complex 7

Location: Taiyuan Satellite Launch Center, People's Republic of China

...

Latest news about this satellite

There are no fresh news available about this satellite. Check back as we update our databases every day.


Newsletter sign-up

Weekly statistics, charts and insights to help you stay on top of the space industry.